Location: Alsip
(41.6689°N, 87.7387°W)
Time: 13:40:56
(UTC+00:00)

BREEZE-M DEB (TANK) - Pass Details

Date: 14 July 2020
Orbit: 426 x 13239 km, 46.0° (Epoch: 04 August)

Event Time Altitude Azimuth Distance (km) Brightness Sun altitude
Rises 08:41:29 0° 285° (WNW) 3,947 6.9 -16.2°
Reaches altitude 10° 08:45:03 10° 291° (WNW) 2,218 5.7 -15.7°
Maximum altitude 08:49:04 48° 7° (N) 622 3.4 -15.3°
Drops below altitude 10° 08:51:49 10° 85° (E) 1,517 5.7 -14.9°
Sets 08:53:47 0° 93° (E) 2,490 6.8 -14.7°
